DW9558 Weather Reports


Display with metric or nautical units.
time (UTC)temp
F
wind
direction
speed
MPH
gust
MPH
rain 1hr
in
rain 24hr
in
rain mn
in
humidity
%
barometer
mb
20240220220015 62 175 3.0 7.0 0.00 0.15 0.04 60 1022.5
20240220214519 63 184 6.0 11.0 0.00 0.15 0.04 59 1022.5
20240220213015 63 168 4.0 11.0 0.00 0.15 0.04 58 1022.7
20240220211513 63 153 4.0 11.0 0.00 0.15 0.04 61 1022.8
20240220210011 63 130 2.0 11.0 0.00 0.15 0.04 61 1023.0
20240220204517 62 153 3.0 9.0 0.00 0.15 0.04 64 1023.2
20240220203008 62 117 1.0 7.0 0.00 0.15 0.04 64 1023.4
20240220201514 62 171 3.0 9.0 0.00 0.15 0.04 64 1023.5
20240220200010 62 132 1.0 8.0 0.00 0.15 0.04 66 1023.5
20240220194506 62 128 0.0 9.0 0.00 0.15 0.04 67 1023.7
20240220193005 62 116 4.0 9.0 0.00 0.15 0.04 66 1024.0
20240220191503 62 173 4.0 9.0 0.00 0.15 0.04 66 1024.4
20240220190105 62 111 3.0 11.0 0.00 0.15 0.04 67 1024.5
20240220184557 61 106 1.0 12.0 0.00 0.15 0.04 68 1024.7
20240220183054 60 133 4.0 10.0 0.00 0.15 0.04 69 1024.7
20240220181603 58 113 1.0 7.0 0.00 0.15 0.04 73 1024.8
20240220180058 56 133 2.0 7.0 0.00 0.15 0.04 77 1024.9
20240220174544 56 103 0.0 4.0 0.00 0.15 0.04 77 1025.0
20240220173048 56 98 0.0 4.0 0.00 0.15 0.04 78 1025.0
20240220171552 55 123 2.0 8.0 0.00 0.15 0.04 79 1024.9
20240220170056 55 127 0.0 7.0 0.00 0.15 0.04 80 1024.7
20240220164538 54 119 2.0 7.0 0.00 0.15 0.04 81 1024.5
20240220163039 54 100 0.0 4.0 0.00 0.15 0.04 82 1024.5
20240220161539 53 123 0.0 3.0 0.00 0.15 0.04 83 1024.5
20240220160032 52 129 1.0 7.0 0.00 0.15 0.04 83 1024.3
20240220154533 52 99 0.0 6.0 0.00 0.15 0.04 84 1024.1
20240220153028 52 107 0.0 7.0 0.00 0.15 0.04 84 1024.0
20240220151524 52 109 0.0 3.0 0.00 0.15 0.04 84 1023.8
20240220150022 52 115 1.0 7.0 0.00 0.15 0.04 84 1023.7
20240220144519 51 103 1.0 6.0 0.00 0.15 0.04 85 1023.6
20240220143018 51 129 0.0 4.0 0.00 0.15 0.04 86 1023.5
20240220141516 51 128 0.0 3.0 0.00 0.15 0.04 86 1023.4
20240220140016 51 133 0.0 3.0 0.00 0.15 0.04 86 1023.3
20240220134515 51 132 0.0 3.0 0.00 0.15 0.04 87 1023.2
20240220133013 51 133 0.0 0.0 0.00 0.15 0.04 86 1023.1
20240220131512 51 132 0.0 3.0 0.00 0.15 0.04 87 1023.1
20240220130011 52 132 0.0 0.0 0.00 0.15 0.04 87 1023.0
20240220124509 52 132 0.0 0.0 0.00 0.15 0.04 86 1022.9
20240220123008 52 132 0.0 0.0 0.00 0.15 0.04 86 1022.7
20240220121512 53 132 0.0 0.0 0.00 0.15 0.04 86 1022.8
20240220120006 53 132 1.0 5.0 0.00 0.15 0.04 86 1022.7
20240220114504 52 132 0.0 3.0 0.00 0.15 0.04 87 1022.5
20240220113004 52 132 0.0 2.0 0.00 0.15 0.04 88 1022.4
20240220111503 52 132 0.0 1.0 0.00 0.15 0.04 88 1022.4
20240220110005 52 133 0.0 2.0 0.04 0.15 0.04 88 1022.2
20240220104600 52 133 0.0 4.0 0.04 0.21 0.04 88 1022.3
20240220103059 53 132 0.0 4.0 0.04 0.21 0.04 87 1022.2
20240220101600 53 132 1.0 8.0 0.04 0.21 0.04 87 1022.2
20240220100053 54 136 1.0 6.0 0.00 0.17 0.00 84 1022.5
20240220094553 54 89 1.0 6.0 0.00 0.25 0.00 84 1022.4
20240220093052 54 115 1.0 6.0 0.00 0.25 0.00 83 1022.2
20240220091550 54 115 0.0 3.0 0.00 0.25 0.00 82 1022.3
20240220090049 55 115 0.0 9.0 0.00 0.25 0.00 81 1022.4
20240220084558 55 110 1.0 4.0 0.00 0.30 0.00 81 1022.3
20240220083049 55 110 0.0 3.0 0.00 0.30 0.00 81 1022.1
20240220081547 55 109 1.0 6.0 0.00 0.30 0.00 80 1022.2
20240220080041 56 106 0.0 3.0 0.00 0.30 0.00 80 1022.2
20240220074540 56 106 0.0 4.0 0.00 0.46 0.30 78 1022.2
20240220073040 56 105 2.0 6.0 0.00 0.46 0.30 78 1022.0
20240220071537 56 103 1.0 4.0 0.00 0.46 0.30 80 1022.0
20240220070038 55 102 1.0 4.0 0.00 0.46 0.30 82 1022.0
20240220064535 55 102 1.0 6.0 0.00 0.72 0.30 83 1022.0
20240220063036 55 96 0.0 6.0 0.00 0.72 0.30 84 1021.8
20240220061535 56 95 0.0 6.0 0.00 0.72 0.30 82 1021.7
20240220060033 56 145 0.0 3.0 0.00 0.72 0.30 80 1021.5
20240220054530 56 145 2.0 8.0 0.00 0.85 0.30 79 1021.4
20240220053028 57 169 5.0 10.0 0.00 0.85 0.30 78 1021.0
20240220051527 57 191 2.0 9.0 0.00 0.85 0.30 76 1020.8
20240220050025 57 187 5.0 10.0 0.00 0.85 0.30 75 1020.5
20240220044526 57 213 5.0 12.0 0.00 1.41 0.30 78 1020.4
20240220043023 56 159 4.0 9.0 0.00 1.41 0.30 81 1020.1
20240220041528 55 175 4.0 10.0 0.01 1.41 0.30 82 1019.9
20240220040021 55 157 3.0 8.0 0.01 1.41 0.30 84 1019.8
20240220034523 55 175 4.0 9.0 0.02 1.41 0.30 83 1019.9
20240220033021 55 176 4.0 19.0 0.02 1.41 0.30 80 1020.1
20240220031523 55 165 4.0 13.0 0.01 1.40 0.28 82 1019.8
20240220030016 56 167 7.0 10.0 0.01 1.40 0.28 84 1019.6
20240220024515 57 191 9.0 17.0 0.00 1.39 0.28 79 1019.4
20240220023012 57 205 5.0 11.0 0.01 1.39 0.28 82 1018.6
20240220021509 56 185 6.0 12.0 0.01 1.39 0.28 83 1018.2
20240220020008 56 164 4.0 11.0 0.01 1.39 0.28 85 1018.1
20240220014511 56 164 6.0 15.0 0.03 1.39 0.28 87 1018.0
20240220013008 55 163 6.0 11.0 0.02 1.38 0.27 87 1017.9
20240220011509 54 194 7.0 16.0 0.05 1.38 0.27 87 1017.9
20240220010005 55 174 5.0 17.0 0.06 1.38 0.27 85 1017.8
20240220004503 57 236 4.0 11.0 0.04 1.36 0.25 82 1017.7
20240220003005 58 157 4.0 10.0 0.04 1.36 0.25 78 1017.3
20240220001503 61 172 6.0 13.0 0.00 1.32 0.21 73 1017.8
20240220000059 61 163 4.0 8.0 0.01 1.32 0.21 74 1016.9
20240219234558 60 180 6.0 11.0 0.02 1.32 0.21 74 1016.9
20240219233159 59 162 4.0 11.0 0.02 1.32 0.21 77 1016.9
20240219231556 59 180 4.0 14.0 0.02 1.32 0.21 77 1016.7
20240219230056 60 140 6.0 12.0 0.01 1.31 0.20 74 1016.6
20240219224557 62 168 5.0 11.0 0.00 1.30 0.19 67 1016.1
20240219223115 62 144 5.0 13.0 0.00 1.30 0.19 66 1016.1
20240219221554 62 178 7.0 17.0 0.00 1.30 0.19 67 1016.1